Location: Cactus School
(34.5700°N, 118.0931°W)
Time: 02:32:55
(UTC-08:00)

A-11 Canister half - Pass Details

Date: 25 November 2019
Orbit: 1515 x 1684 km, 47.2° (Epoch: 15 December)

Event Time Altitude Azimuth Distance (km) Brightness Sun altitude
Rises 21:51:43 0° 305° (NW) 4,940 12.1 -62.6°
Reaches altitude 10° 21:54:54 10° 306° (NW) 3,951 11.4 -63.2°
Enters shadow 21:55:52 14° 306° (NW) 3,654 11.2 -63.4°
